contact:dominique.lefevre@mio.osupytheas.fr, maurice.libes@osupytheas.fr, didier.mallarino@osupytheas.fr
Project:EMSO http://www.emso-fr.org/EMSO-France
Depth: 2436.0 m
Title:EMSO Ligure Ouest : Data MII capteur CSTAR
DateTime,Latitude,Longitude,Instrument_Serial,Reference_Counts,Signal_Counts,Corrected_Signal_raw_counts,Calculated_Beam_c_inverse_meters,Internal_thermistor_counts
DateTime,Latitude,Longitude,Instrument_Serial,Reference_Counts,Signal_Counts,Corrected_Signal_raw_counts,Calculated_Beam_c_inverse_meters,Internal_thermistor_counts
2020-03-11T00:03:01,42.805,6.029,CST-1368DR,6642,9310,15214,0.104,551
2020-03-11T00:06:03,42.805,6.029,CST-1368DR,6642,9310,15215,0.104,551
2020-03-11T00:09:04,42.805,6.029,CST-1368DR,6642,9312,15218,0.103,550
2020-03-11T00:12:06,42.805,6.029,CST-1368DR,6642,9312,15218,0.103,551
2020-03-11T00:15:08,42.805,6.029,CST-1368DR,6642,9310,15214,0.104,551
2020-03-11T00:18:09,42.805,6.029,CST-1368DR,6642,9311,15215,0.104,551
2020-03-11T00:21:11,42.805,6.029,CST-1368DR,6642,9312,15217,0.104,551
2020-03-11T00:24:13,42.805,6.029,CST-1368DR,6642,9310,15215,0.104,551
2020-03-11T00:27:14,42.805,6.029,CST-1368DR,6642,9310,15214,0.104,551
2020-03-11T00:30:16,42.805,6.029,CST-1368DR,6642,9310,15214,0.104,551
2020-03-11T00:33:17,42.805,6.029,CST-1368DR,6642,9311,15216,0.104,551
2020-03-11T00:36:19,42.805,6.029,CST-1368DR,6642,9311,15216,0.104,551
2020-03-11T00:39:21,42.805,6.029,CST-1368DR,6642,9311,15215,0.104,551
2020-03-11T00:42:22,42.805,6.029,CST-1368DR,6642,9310,15215,0.104,551
2020-03-11T00:45:24,42.805,6.029,CST-1368DR,6642,9304,15204,0.107,551
2020-03-11T00:48:26,42.805,6.029,CST-1368DR,6642,9311,15217,0.104,551
2020-03-11T00:51:27,42.805,6.029,CST-1368DR,6642,9310,15215,0.104,551
2020-03-11T00:54:29,42.805,6.029,CST-1368DR,6642,9310,15214,0.104,551
2020-03-11T00:57:31,42.805,6.029,CST-1368DR,6642,9310,15215,0.104,551
2020-03-11T01:00:32,42.805,6.029,CST-1368DR,6642,9311,15216,0.104,551
2020-03-11T01:03:34,42.805,6.029,CST-1368DR,6642,9309,15212,0.105,551
2020-03-11T01:06:35,42.805,6.029,CST-1368DR,6642,9311,15215,0.104,551
2020-03-11T01:09:37,42.805,6.029,CST-1368DR,6642,9311,15216,0.104,551
2020-03-11T01:12:39,42.805,6.029,CST-1368DR,6642,9311,15215,0.104,551
2020-03-11T01:15:40,42.805,6.029,CST-1368DR,6642,9310,15214,0.104,551
2020-03-11T01:18:42,42.805,6.029,CST-1368DR,6642,9304,15204,0.107,551
2020-03-11T01:21:44,42.805,6.029,CST-1368DR,6642,9310,15214,0.104,551
2020-03-11T01:24:45,42.805,6.029,CST-1368DR,6642,9311,15216,0.104,551
2020-03-11T01:27:47,42.805,6.029,CST-1368DR,6642,9301,15199,0.108,551
2020-03-11T01:30:49,42.805,6.029,CST-1368DR,6642,9309,15213,0.105,551
2020-03-11T01:33:50,42.805,6.029,CST-1368DR,6642,9310,15215,0.104,551
2020-03-11T01:36:52,42.805,6.029,CST-1368DR,6642,9310,15215,0.104,551
2020-03-11T01:39:53,42.805,6.029,CST-1368DR,6642,9310,15215,0.104,551
2020-03-11T01:42:55,42.805,6.029,CST-1368DR,6642,9308,15211,0.105,550
2020-03-11T01:45:57,42.805,6.029,CST-1368DR,6642,9307,15209,0.106,551
2020-03-11T01:48:58,42.805,6.029,CST-1368DR,6642,9309,15213,0.105,551
2020-03-11T01:52:00,42.805,6.029,CST-1368DR,6642,9309,15213,0.105,551
2020-03-11T01:55:02,42.805,6.029,CST-1368DR,6642,9309,15213,0.105,551
2020-03-11T01:58:03,42.805,6.029,CST-1368DR,6642,9309,15213,0.105,551
2020-03-11T02:01:05,42.805,6.029,CST-1368DR,6642,9307,15209,0.106,551
2020-03-11T02:04:06,42.805,6.029,CST-1368DR,6642,9310,15215,0.104,551
2020-03-11T02:07:08,42.805,6.029,CST-1368DR,6642,9310,15215,0.104,551
2020-03-11T02:10:10,42.805,6.029,CST-1368DR,6642,9306,15207,0.106,551
2020-03-11T02:13:12,42.805,6.029,CST-1368DR,6642,9306,15208,0.106,550
2020-03-11T02:16:13,42.805,6.029,CST-1368DR,6642,9311,15216,0.104,551
2020-03-11T02:19:15,42.805,6.029,CST-1368DR,6642,9309,15213,0.105,550
2020-03-11T02:22:16,42.805,6.029,CST-1368DR,6642,9311,15215,0.104,551
2020-03-11T02:25:18,42.805,6.029,CST-1368DR,6642,9309,15213,0.105,551
2020-03-11T02:28:20,42.805,6.029,CST-1368DR,6642,9308,15212,0.105,551
2020-03-11T02:31:23,42.805,6.029,CST-1368DR,6642,9310,15215,0.104,551
2020-03-11T02:34:25,42.805,6.029,CST-1368DR,6642,9307,15210,0.105,551
2020-03-11T02:37:27,42.805,6.029,CST-1368DR,6642,9310,15215,0.104,551
2020-03-11T02:40:28,42.805,6.029,CST-1368DR,6642,9310,15215,0.104,551
2020-03-11T02:43:30,42.805,6.029,CST-1368DR,6642,9305,15207,0.106,550
2020-03-11T02:46:32,42.805,6.029,CST-1368DR,6642,9304,15204,0.107,551
2020-03-11T02:49:33,42.805,6.029,CST-1368DR,6641,9310,15216,0.104,551
2020-03-11T02:52:35,42.805,6.029,CST-1368DR,6641,9310,15216,0.104,551
2020-03-11T02:55:37,42.805,6.029,CST-1368DR,6642,9309,15213,0.105,551
2020-03-11T02:58:38,42.805,6.029,CST-1368DR,6642,9309,15213,0.105,551
2020-03-11T03:01:40,42.805,6.029,CST-1368DR,6642,9309,15213,0.105,551
2020-03-11T03:04:41,42.805,6.029,CST-1368DR,6642,9309,15213,0.105,551
2020-03-11T03:07:43,42.805,6.029,CST-1368DR,6641,9309,15215,0.104,550
2020-03-11T03:10:45,42.805,6.029,CST-1368DR,6641,9296,15193,0.110,551
2020-03-11T03:13:46,42.805,6.029,CST-1368DR,6641,9307,15211,0.105,551
2020-03-11T03:16:48,42.805,6.029,CST-1368DR,6641,9309,15216,0.104,551
2020-03-11T03:19:50,42.805,6.029,CST-1368DR,6641,9308,15214,0.104,551
2020-03-11T03:22:51,42.805,6.029,CST-1368DR,6641,9309,15214,0.104,551
2020-03-11T03:25:53,42.805,6.029,CST-1368DR,6641,9311,15218,0.103,551
2020-03-11T03:28:54,42.805,6.029,CST-1368DR,6641,9310,15217,0.104,551
2020-03-11T03:31:56,42.805,6.029,CST-1368DR,6641,9308,15213,0.105,551
2020-03-11T03:34:58,42.805,6.029,CST-1368DR,6641,9311,15219,0.103,551
2020-03-11T03:37:59,42.805,6.029,CST-1368DR,6641,9310,15217,0.104,551
2020-03-11T03:41:01,42.805,6.029,CST-1368DR,6641,9310,15217,0.104,551
2020-03-11T03:44:03,42.805,6.029,CST-1368DR,6641,9309,15215,0.104,551
2020-03-11T03:47:04,42.805,6.029,CST-1368DR,6641,9310,15217,0.104,551
2020-03-11T03:50:06,42.805,6.029,CST-1368DR,6641,9310,15217,0.104,551
2020-03-11T03:53:08,42.805,6.029,CST-1368DR,6641,9309,15214,0.104,550
2020-03-11T03:56:09,42.805,6.029,CST-1368DR,6641,9310,15217,0.104,551
2020-03-11T03:59:11,42.805,6.029,CST-1368DR,6641,9309,15216,0.104,551
2020-03-11T04:02:12,42.805,6.029,CST-1368DR,6641,9309,15214,0.104,551
2020-03-11T04:05:14,42.805,6.029,CST-1368DR,6641,9309,15214,0.104,551
2020-03-11T04:08:16,42.805,6.029,CST-1368DR,6641,9310,15217,0.104,551
2020-03-11T04:11:17,42.805,6.029,CST-1368DR,6641,9310,15216,0.104,551
2020-03-11T04:14:19,42.805,6.029,CST-1368DR,6641,9310,15216,0.104,551
2020-03-11T04:17:21,42.805,6.029,CST-1368DR,6641,9306,15210,0.105,551
2020-03-11T04:20:22,42.805,6.029,CST-1368DR,6641,9309,15216,0.104,551
2020-03-11T04:23:24,42.805,6.029,CST-1368DR,6641,9307,15211,0.105,550
2020-03-11T04:26:26,42.805,6.029,CST-1368DR,6641,9310,15216,0.104,551
2020-03-11T04:29:27,42.805,6.029,CST-1368DR,6641,9307,15212,0.105,551
2020-03-11T04:32:29,42.805,6.029,CST-1368DR,6641,9309,15214,0.104,551
2020-03-11T04:35:31,42.805,6.029,CST-1368DR,6641,9310,15217,0.104,550
2020-03-11T04:38:32,42.805,6.029,CST-1368DR,6641,9309,15215,0.104,551
2020-03-11T04:41:34,42.805,6.029,CST-1368DR,6641,9309,15216,0.104,551
2020-03-11T04:44:36,42.805,6.029,CST-1368DR,6641,9311,15218,0.103,551
2020-03-11T04:47:37,42.805,6.029,CST-1368DR,6641,9310,15216,0.104,551
2020-03-11T04:50:39,42.805,6.029,CST-1368DR,6641,9309,15216,0.104,551
2020-03-11T04:53:41,42.805,6.029,CST-1368DR,6641,9309,15214,0.104,551
2020-03-11T04:56:42,42.805,6.029,CST-1368DR,6641,9309,15215,0.104,551
2020-03-11T04:59:44,42.805,6.029,CST-1368DR,6641,9310,15217,0.104,551
2020-03-11T05:02:45,42.805,6.029,CST-1368DR,6641,9309,15215,0.104,551
2020-03-11T05:05:47,42.805,6.029,CST-1368DR,6641,9309,15215,0.104,551
2020-03-11T05:08:49,42.805,6.029,CST-1368DR,6641,9310,15217,0.104,551
2020-03-11T05:11:50,42.805,6.029,CST-1368DR,6641,9305,15208,0.106,551
2020-03-11T05:14:52,42.805,6.029,CST-1368DR,6641,9309,15214,0.104,551
2020-03-11T05:17:54,42.805,6.029,CST-1368DR,6641,9309,15215,0.104,551
2020-03-11T05:20:56,42.805,6.029,CST-1368DR,6641,9301,15202,0.107,551
2020-03-11T05:23:57,42.805,6.029,CST-1368DR,6641,9310,15216,0.104,551
2020-03-11T05:26:59,42.805,6.029,CST-1368DR,6641,9311,15218,0.103,551
2020-03-11T05:30:00,42.805,6.029,CST-1368DR,6641,9310,15216,0.104,551
2020-03-11T05:33:02,42.805,6.029,CST-1368DR,6641,9310,15216,0.104,551
2020-03-11T05:36:04,42.805,6.029,CST-1368DR,6641,9309,15215,0.104,551
2020-03-11T05:39:05,42.805,6.029,CST-1368DR,6641,9303,15206,0.106,551
2020-03-11T05:42:07,42.805,6.029,CST-1368DR,6641,9308,15213,0.105,551
2020-03-11T05:45:09,42.805,6.029,CST-1368DR,6641,9310,15216,0.104,551
2020-03-11T05:48:10,42.805,6.029,CST-1368DR,6641,9302,15204,0.107,551
2020-03-11T05:51:13,42.805,6.029,CST-1368DR,6641,9311,15218,0.103,551
2020-03-11T05:54:14,42.805,6.029,CST-1368DR,6641,9298,15197,0.109,551
2020-03-11T05:57:16,42.805,6.029,CST-1368DR,6641,9310,15216,0.104,551
2020-03-11T06:00:18,42.805,6.029,CST-1368DR,6641,9310,15216,0.104,551
2020-03-11T06:03:20,42.805,6.029,CST-1368DR,6641,9310,15216,0.104,551
2020-03-11T06:06:21,42.805,6.029,CST-1368DR,6641,9308,15214,0.104,550
2020-03-11T06:09:23,42.805,6.029,CST-1368DR,6641,9307,15212,0.105,551
2020-03-11T06:12:25,42.805,6.029,CST-1368DR,6641,9308,15213,0.105,551
2020-03-11T06:15:26,42.805,6.029,CST-1368DR,6641,9309,15215,0.104,551
2020-03-11T06:18:28,42.805,6.029,CST-1368DR,6641,9309,15214,0.104,551
2020-03-11T06:21:30,42.805,6.029,CST-1368DR,6641,9310,15217,0.104,551
2020-03-11T06:24:31,42.805,6.029,CST-1368DR,6641,9310,15217,0.104,551
2020-03-11T06:27:33,42.805,6.029,CST-1368DR,6641,9308,15214,0.104,550
2020-03-11T06:30:34,42.805,6.029,CST-1368DR,6641,9308,15213,0.105,551
2020-03-11T06:33:36,42.805,6.029,CST-1368DR,6641,9310,15216,0.104,551
2020-03-11T06:36:38,42.805,6.029,CST-1368DR,6641,9309,15215,0.104,551
2020-03-11T06:39:39,42.805,6.029,CST-1368DR,6641,9309,15215,0.104,551
2020-03-11T06:42:41,42.805,6.029,CST-1368DR,6641,9310,15216,0.104,551
2020-03-11T06:45:43,42.805,6.029,CST-1368DR,6641,9310,15216,0.104,551
2020-03-11T06:48:44,42.805,6.029,CST-1368DR,6639,9178,15004,0.160,551
2020-03-11T06:51:46,42.805,6.029,CST-1368DR,6637,8929,14602,0.269,551
2020-03-11T06:54:48,42.805,6.029,CST-1368DR,6638,8995,14709,0.239,551
2020-03-11T06:57:49,42.805,6.029,CST-1368DR,6639,9158,14972,0.168,551
2020-03-11T07:00:51,42.805,6.029,CST-1368DR,6640,9267,15148,0.122,551
2020-03-11T07:03:53,42.805,6.029,CST-1368DR,6640,9228,15084,0.139,551
2020-03-11T07:06:54,42.805,6.029,CST-1368DR,6640,9267,15149,0.121,551
2020-03-11T07:09:56,42.805,6.029,CST-1368DR,6640,9210,15056,0.146,551
2020-03-11T07:12:58,42.805,6.029,CST-1368DR,6639,9189,15023,0.155,551
2020-03-11T07:15:59,42.805,6.029,CST-1368DR,6640,9242,15107,0.133,551
2020-03-11T07:19:01,42.805,6.029,CST-1368DR,6640,9233,15092,0.137,551
2020-03-11T07:22:02,42.805,6.029,CST-1368DR,6639,9165,14984,0.165,551
2020-03-11T07:25:04,42.805,6.029,CST-1368DR,6640,9262,15140,0.124,551
2020-03-11T07:28:06,42.805,6.029,CST-1368DR,6638,9072,14833,0.206,551
2020-03-11T07:31:07,42.805,6.029,CST-1368DR,6638,9084,14854,0.200,550
2020-03-11T07:34:09,42.805,6.029,CST-1368DR,6639,9120,14911,0.185,551
2020-03-11T07:37:11,42.805,6.029,CST-1368DR,6639,9093,14865,0.197,551
2020-03-11T07:40:12,42.805,6.029,CST-1368DR,6639,9108,14891,0.190,551
2020-03-11T07:43:14,42.805,6.029,CST-1368DR,6640,9208,15052,0.147,551
2020-03-11T07:46:16,42.805,6.029,CST-1368DR,6639,9177,15004,0.160,551
2020-03-11T07:49:17,42.805,6.029,CST-1368DR,6639,9144,14949,0.175,551
2020-03-11T07:52:19,42.805,6.029,CST-1368DR,6638,9082,14850,0.201,551
2020-03-11T07:55:21,42.805,6.029,CST-1368DR,6639,9145,14952,0.174,551
2020-03-11T07:58:23,42.805,6.029,CST-1368DR,6640,9232,15091,0.137,551
2020-03-11T08:01:25,42.805,6.029,CST-1368DR,6640,9283,15174,0.115,551
2020-03-11T08:04:27,42.805,6.029,CST-1368DR,6640,9278,15167,0.117,551
2020-03-11T08:07:28,42.805,6.029,CST-1368DR,6639,9169,14990,0.164,551
2020-03-11T08:10:30,42.805,6.029,CST-1368DR,6639,9143,14948,0.175,551
2020-03-11T08:13:31,42.805,6.029,CST-1368DR,6640,9190,15023,0.155,551
2020-03-11T08:16:33,42.805,6.029,CST-1368DR,6640,9285,15178,0.114,551
2020-03-11T08:19:35,42.805,6.029,CST-1368DR,6639,9207,15052,0.147,551
2020-03-11T08:22:36,42.805,6.029,CST-1368DR,6640,9236,15098,0.135,551
2020-03-11T08:25:38,42.805,6.029,CST-1368DR,6640,9259,15136,0.125,551
2020-03-11T08:28:40,42.805,6.029,CST-1368DR,6640,9223,15077,0.141,551
2020-03-11T08:31:41,42.805,6.029,CST-1368DR,6639,9213,15063,0.144,551
2020-03-11T08:34:43,42.805,6.029,CST-1368DR,6640,9273,15159,0.119,551
2020-03-11T08:37:45,42.805,6.029,CST-1368DR,6640,9275,15161,0.118,551
2020-03-11T08:40:46,42.805,6.029,CST-1368DR,6639,9165,14983,0.166,550
2020-03-11T08:43:48,42.805,6.029,CST-1368DR,6640,9263,15142,0.123,550
2020-03-11T08:46:50,42.805,6.029,CST-1368DR,6639,9216,15068,0.143,551
2020-03-11T08:49:51,42.805,6.029,CST-1368DR,6639,9139,14941,0.177,551
2020-03-11T08:52:53,42.805,6.029,CST-1368DR,6640,9255,15129,0.127,551
2020-03-11T08:55:54,42.805,6.029,CST-1368DR,6640,9275,15161,0.118,551
2020-03-11T08:58:56,42.805,6.029,CST-1368DR,6640,9285,15178,0.114,551
2020-03-11T09:01:58,42.805,6.029,CST-1368DR,6640,9245,15113,0.131,551
2020-03-11T09:04:59,42.805,6.029,CST-1368DR,6640,9235,15097,0.135,551
2020-03-11T09:08:01,42.805,6.029,CST-1368DR,6639,9209,15055,0.146,551
2020-03-11T09:11:03,42.805,6.029,CST-1368DR,6640,9228,15084,0.139,551
2020-03-11T09:14:04,42.805,6.029,CST-1368DR,6640,9240,15104,0.133,551
2020-03-11T09:17:06,42.805,6.029,CST-1368DR,6639,9233,15095,0.136,550
2020-03-11T09:20:08,42.805,6.029,CST-1368DR,6639,9169,14990,0.164,551
2020-03-11T09:23:09,42.805,6.029,CST-1368DR,6639,9231,15091,0.137,551
2020-03-11T09:26:11,42.805,6.029,CST-1368DR,6639,9214,15065,0.144,550
2020-03-11T09:29:13,42.805,6.029,CST-1368DR,6640,9258,15134,0.125,551
2020-03-11T09:32:14,42.805,6.029,CST-1368DR,6639,9173,14997,0.162,551
2020-03-11T09:35:16,42.805,6.029,CST-1368DR,6640,9252,15123,0.128,551
2020-03-11T09:38:18,42.805,6.029,CST-1368DR,6640,9246,15114,0.131,551
2020-03-11T09:41:19,42.805,6.029,CST-1368DR,6639,9223,15078,0.140,551
2020-03-11T09:44:21,42.805,6.029,CST-1368DR,6639,9181,15010,0.158,550
2020-03-11T09:47:23,42.805,6.029,CST-1368DR,6639,9240,15107,0.133,551
2020-03-11T09:50:24,42.805,6.029,CST-1368DR,6640,9254,15127,0.127,551
2020-03-11T09:53:26,42.805,6.029,CST-1368DR,6639,9253,15127,0.127,551
2020-03-11T09:56:28,42.805,6.029,CST-1368DR,6639,9224,15080,0.140,551
2020-03-11T09:59:29,42.805,6.029,CST-1368DR,6640,9237,15100,0.134,551
2020-03-11T10:02:31,42.805,6.029,CST-1368DR,6640,9258,15134,0.125,551
2020-03-11T10:05:33,42.805,6.029,CST-1368DR,6640,9285,15178,0.114,551
2020-03-11T10:08:34,42.805,6.029,CST-1368DR,6639,9245,15115,0.130,551
2020-03-11T10:11:36,42.805,6.029,CST-1368DR,6639,9202,15045,0.149,551
2020-03-11T10:14:37,42.805,6.029,CST-1368DR,6639,9225,15082,0.139,551
2020-03-11T10:17:39,42.805,6.029,CST-1368DR,6639,9229,15088,0.138,551
2020-03-11T10:20:41,42.805,6.029,CST-1368DR,6639,9239,15105,0.133,551
2020-03-11T10:23:42,42.805,6.029,CST-1368DR,6640,9280,15169,0.116,551
2020-03-11T10:26:44,42.805,6.029,CST-1368DR,6639,9240,15106,0.133,551
2020-03-11T10:29:46,42.805,6.029,CST-1368DR,6639,9226,15084,0.139,551
2020-03-11T10:32:47,42.805,6.029,CST-1368DR,6639,9226,15084,0.139,551
2020-03-11T10:35:49,42.805,6.029,CST-1368DR,6639,9215,15065,0.144,551
2020-03-11T10:38:51,42.805,6.029,CST-1368DR,6639,9211,15060,0.145,551
2020-03-11T10:41:53,42.805,6.029,CST-1368DR,6639,9241,15107,0.133,551
2020-03-11T10:44:54,42.805,6.029,CST-1368DR,6638,9168,14990,0.164,551
2020-03-11T10:47:56,42.805,6.029,CST-1368DR,6639,9221,15075,0.141,551
2020-03-11T10:50:57,42.805,6.029,CST-1368DR,6639,9242,15109,0.132,551
2020-03-11T10:53:59,42.805,6.029,CST-1368DR,6639,9220,15073,0.142,551
